User: anonymous   Login
Location: Unspecified
(0.0000°N, 0.0000°E)
Time: 09:34:55
(UTC+00:00)
Language:

GOES 2 - Orbit

View from above orbital plane
View from above orbital plane
View from above satellite
View from above satellite

Ground track
Ground track

The orbit data is extracted from the following two-line orbital elements,

1 10061U 77048A   18264.82576690 +.00000068 +00000-0 +00000-0 0  9992
2 10061 012.5791 322.3158 0016751 332.6214 042.7530 00.99396282018198
Epoch (UTC): 21 September 2018 19:49:06
Eccentricity: 0.0016751
inclination: 12.5791°
perigee height: 35962 km
apogee height: 36104 km
right ascension of ascending node: 322.3158°
argument of perigee: 332.6214°
revolutions per day: 0.99396282
mean anomaly at epoch: 42.7530°
orbit number at epoch: 1819

The dashed part of the orbit path shows where the satellite is in the earth's shadow,  

DLR